Location: Arclight Observatory
(36.5667°N, 87.3333°W)
Time: 21:46:41
(UTC-05:00)

HST - Visible Passes

Search period start: 24 October 2014 00:00
Search period end: 02 November 2014 23:00
Orbit: 546 x 550 km, 28.5° (Epoch: 23 October)

Date Brightness Start Highest point End Pass type
(mag) Time Alt. Az. Time Alt. Az. Time Alt. Az.
24 Oct 3.1 19:56:01 10° SSW 19:57:30 15° S 19:57:30 15° S visible
25 Oct 2.7 19:48:19 10° SSW 19:50:43 19° S 19:50:43 19° S visible
26 Oct 2.5 19:40:43 10° SW 19:43:54 22° S 19:43:54 22° S visible
27 Oct 2.3 19:33:11 10° SW 19:36:35 24° S 19:37:03 23° SSE visible
28 Oct 2.2 19:25:43 10° SW 19:29:12 26° S 19:30:11 23° SSE visible
29 Oct 2.3 19:18:17 10° SW 19:21:49 27° S 19:23:18 21° SE visible
30 Oct 2.3 19:10:53 10° WSW 19:14:26 27° S 19:16:25 19° SE visible
31 Oct 2.4 19:03:31 10° WSW 19:07:02 26° S 19:09:34 15° SE visible
01 Nov 2.5 18:56:11 10° WSW 18:59:38 25° S 19:02:45 12° SE visible
02 Nov 2.7 17:48:54 10° WSW 17:52:13 23° S 17:55:32 10° SE visible
